Starlink 32363

operational
NORAD ID: 61678 Int'l Des: 2024-193 Owner: SPXS Country: US Constellation: starlink
LEOCIRCULAR

关于 Starlink 32363

正在加载描述...

实时位置

正在加载3D地球...

即将过境

高度历史

Altitude vs Time

uPlot chart will show altitude changes over time

两行轨道根数

1 61678U 24193T 25351.34463637 .00001547 00000-0 64359-4 0 9997
2 61678 53.1601 113.1796 0000963 71.1679 288.9426 15.30193573 63929
Epoch: Dec 17, 2025 • Age: 12 hours

当前状态

高度 480.4 km
速度 7.63 km/s
星下点 -17.43°S, 84.12°W
发射日期 Oct 26, 2024
运行时间 1.1 years
类型 internet

技术详情

分类 Payload
质量 730.00 kg
干质量 700.00 kg
总质量 730.00 kg
长度 0.30 m
直径 4.10 m
跨度 29.00 m
形状 Box + pan
制造商 SPXS
平台类型 Starlink V2M
阶段状态 In Orbit
所有者/国家 SPXS/US

大型星座

Loading constellations...